Location: Campillo
(40.8621°N, 4.2488°W)
Time: 12:45:19
(UTC+00:00)

Resurs 01 Rocket - Pass Details

Date: 11 May 2021
Orbit: 633 x 645 km, 97.9° (Epoch: 13 June)

Event Time Altitude Azimuth Distance (km) Brightness Sun altitude
Exits shadow 21:39:47 16° 213° (SSW) 1,648 3.5 -21.1°
Maximum altitude 21:42:29 29° 264° (W) 1,168 3.2 -21.4°
Drops below altitude 10° 21:46:24 10° 325° (NW) 2,044 5.4 -21.9°
Sets 21:48:51 0° 337° (NNW) 2,956 6.4 -22.2°
